CAPE
0 0 0 0 0 0 0 0 0 0 0 0 0 0 0 0 377 604 995 926 722 839 1086 1314 1370 1290 1244 1561 1642 1872 1840 2057 1962 1860 1601 1541 1429 1979 847 429 978 1450 1880 1684
0 0 0 0 0 0 0 0 0 0 0 0 0 0 0 0 0 255 776 959 968 833 599 641 1293 1390 837 1057 1636 1858 2103 2249 2057 1918 1819 1671 1721 1557 1518 1753 1698 1897 1648 1786
0 0 0 0 0 0 0 0 0 0 0 0 0 0 0 0 0 0 186 861 1039 1092 792 526 1080 1511 1303 1163 1665 1820 2214 2273 2201 2141 1954 1551 1433 1339 1409 1410 1511 1658 1722 1602
0 0 0 0 0 0 0 0 0 0 0 0 0 0 0 0 0 0 0 76 581 1093 1171 865 895 1395 1480 1559 461 1460 2129 2217 2154 2142 1895 1937 2004 1967 1550 1902 1767 1756 1666 1694
0 0 0 0 0 0 0 0 0 0 0 0 0 0 0 156 283 323 6 233 54 105 580 1041 1111 1189 1515 1537 1112 1536 1810 1858 2044 2081 2157 2178 2102 1798 1707 1463 1615 1693 1724 1575
0 0 0 0 0 0 0 0 0 0 0 0 0 0 0 380 312 534 629 804 639 123 290 720 1056 1214 1441 1562 1479 1326 1710 1799 2032 2022 2128 2135 2170 2044 1602 1561 1518 1377 1408 1420
0 0 0 0 0 0 0 0 0 0 0 0 0 0 0 259 571 676 798 856 456 359 681 920 1154 1332 1499 1589 1579 1524 1310 1731 1890 1924 2042 2118 2130 2080 1900 1923 1536 1369 1200 1233
0 0 0 0 0 0 0 0 0 0 0 0 0 0 4 431 627 940 839 690 716 756 1041 1153 1330 1535 1372 1496 1613 1447 1730 2029 1669 1674 1963 2148 2186 1983 1793 1835 1651 1532 1276 1111
0 0 0 0 0 0 0 0 0 0 0 0 0 1 140 526 724 1071 1096 992 1049 1063 1148 1258 1379 1513 1037 1673 1725 1687 1756 1493 524 988 1946 1885 1862 1955 1886 2026 1785 1692 1639 1383
0 0 0 0 0 0 0 0 0 0 0 0 0 0 0 660 737 1140 1234 1189 1253 1283 1233 1315 1293 1089 1176 1246 1735 1798 1231 850 755 875 932 1566 1664 1982 1982 2111 1879 1725 1694 918
0 0 0 0 0 0 0 0 0 0 0 0 0 0 0 196 751 798 834 1106 1305 1349 969 663 655 617 672 1376 1854 1817 1812 1707 1863 1921 1865 1808 1799 1309 1987 1938 1937 1775 1634 876
0 0 0 0 0 0 0 0 0 0 0 0 0 0 0 605 490 322 820 1115 1470 1348 1079 578 427 451 654 640 606 475 924 2036 2224 2150 2165 2006 2055 1970 992 836 1027 1807 1729 1335
0 0 0 0 0 0 0 0 0 0 0 0 0 0 0 79 53 40 547 1241 1465 1294 1209 847 524 723 496 541 938 928 1100 1318 1121 2657 2527 2547 2542 2423 1230 942 1244 2056 1961 1874
0 0 0 0 0 0 0 0 0 0 0 0 0 0 0 0 124 115 99 1292 1289 1058 816 825 724 611 511 786 1056 992 1032 1583 991 1717 2868 2680 1802 1679 1899 2212 2054 1677 2088 2064
0 0 0 0 0 0 0 0 0 0 0 0 0 0 0 71 93 174 270 881 736 566 450 445 418 208 92 180 279 678 762 1853 957 1473 1630 948 630 1629 2247 2364 1985 1692 1987 2046
0 0 0 0 0 0 0 0 0 0 0 0 0 0 5 0 4 87 77 112 10 14 0 0 0 0 0 0 31 213 320 1102 1875 1891 1693 1938 2450 2833 2821 2196 1656 1385 1889 1924
0 0 0 0 0 0 0 0 0 0 0 0 0 0 0 0 0 0 0 0 0 0 0 0 0 0 0 0 0 0 31 57 1142 1460 1652 1841 2211 2451 2772 2840 2437 2304 1967 1949
0 0 0 0 0 0 0 0 0 0 0 0 0 0 0 0 0 0 0 0 0 0 24 16 5 7 0 0 0 0 0 49 358 850 1204 1459 1715 1862 2234 2338 2100 2046 2208 2425
0 0 0 0 0 0 0 0 0 0 0 0 0 0 0 0 0 0 0 11 3 0 0 0 0 0 2 0 0 0 4 7 30 70 154 815 1590 1719 1629 1768 1965 2098 1994 1942
0 0 0 0 0 0 0 0 0 0 0 0 0 0 0 0 0 7 0 0 0 0 0 0 0 0 0 0 0 0 0 3 27 54 61 301 876 1763 1540 1367 1622 1829 2012 1714
0 0 0 0 0 0 0 0 0 0 0 0 0 0 0 0 0 0 0 0 0 0 0 0 0 0 0 0 0 0 0 2 32 66 62 218 412 844 1696 1298 1399 1565 1826 1831
0 0 0 0 0 0 0 0 0 0 0 0 0 0 0 0 0 0 0 0 0 0 0 0 0 0 0 0 0 0 0 46 176 4 99 232 343 642 896 1275 1153 1374 1715 1761
0 0 0 0 0 0 0 0 0 0 0 0 0 0 0 0 0 0 0 0 0 0 0 0 0 0 0 0 0 0 117 119 1 0 48 238 162 256 830 1373 1145 1019 1424 1235
0 0 0 0 0 0 0 0 0 0 0 0 0 0 0 0 0 0 0 0 0 0 0 0 0 0 0 0 0 0 0 0 0 0 26 77 25 14 41 302 911 963 920 968
0 0 0 0 0 0 0 0 0 0 0 0 0 0 0 0 0 0 0 0 0 0 0 0 1 0 0 0 0 0 0 0 0 0 0 0 0 0 0 18 460 961 728 690
0 0 0 0 0 0 0 0 0 0 0 0 0 0 0 0 0 0 1 0 1 7 5 4 2 3 1 2 0 0 0 0 0 0 0 0 0 0 0 0 39 466 54 5
CIN
0 0 0 0 0 0 0 0 0 0 0 0 0 0 0 0 -187 -185 -252 -229 -215 -232 -150 -139 -135 -121 -177 -128 -104 -117 -90 -82 -52 -47 -45 -32 -24 -8 -59 -98 -32 -8 -14 -10
0 0 0 0 0 0 0 0 0 0 0 0 0 0 0 0 0 -223 -224 -231 -198 -201 -245 -256 -144 -177 -394 -356 -170 -102 -81 -60 -81 -53 -54 -29 -36 -36 -26 -32 -25 -9 -16 -9
0 0 0 0 0 0 0 0 0 0 0 0 0 0 0 0 0 0 -287 -232 -175 -178 -218 -232 -210 -184 -164 -206 -150 -105 -65 -75 -94 -69 -57 -51 -41 -49 -31 -25 -27 -20 -19 -18
0 0 0 0 0 0 0 0 0 0 0 0 0 0 0 0 0 0 0 -263 -176 -172 -213 -233 -223 -200 -237 -179 -498 -159 -98 -129 -98 -73 -67 -51 -36 -25 -27 -22 -24 -27 -23 -20
0 0 0 0 0 0 0 0 0 0 0 0 0 0 0 -173 -68 -160 -250 -210 -218 -199 -179 -221 -229 -246 -215 -194 -163 -119 -164 -156 -116 -76 -46 -47 -39 -32 -35 -38 -23 -14 -13 -23
0 0 0 0 0 0 0 0 0 0 0 0 0 0 0 -91 -212 -212 -207 -192 -238 -243 -253 -246 -259 -290 -239 -205 -208 -214 -160 -136 -127 -102 -60 -36 -35 -51 -59 -44 -23 -11 -4 -8
0 0 0 0 0 0 0 0 0 0 0 0 0 0 0 -154 -192 -253 -250 -250 -339 -347 -316 -323 -339 -334 -316 -270 -267 -196 -212 -191 -189 -174 -120 -84 -47 -29 -56 -39 -25 -23 -19 -21
0 0 0 0 0 0 0 0 0 0 0 0 0 0 -20 -167 -205 -215 -281 -321 -391 -368 -341 -320 -325 -302 -295 -234 -249 -345 -330 -203 -211 -189 -127 -111 -70 -47 -45 -49 -37 -24 -21 -21
0 0 0 0 0 0 0 0 0 0 0 0 0 -4 -79 -139 -117 -175 -209 -249 -278 -265 -277 -280 -304 -301 -336 -244 -200 -170 -203 -283 -444 -322 -216 -194 -129 -87 -50 -60 -58 -37 -31 -26
0 0 0 0 0 0 0 0 0 0 0 0 0 0 0 -77 -74 -136 -167 -195 -215 -209 -230 -251 -366 -389 -314 -244 -192 -147 -205 -230 -287 -281 -287 -209 -174 -105 -40 -17 -45 -51 -35 -50
0 0 0 0 0 0 0 0 0 0 0 0 0 0 0 -121 -119 -145 -164 -203 -208 -138 -228 -336 -449 -447 -415 -221 -137 -110 -96 -105 -96 -102 -167 -197 -181 -145 -46 -12 -23 -40 -46 -57
0 0 0 0 0 0 0 0 0 0 0 0 0 0 0 -123 -137 -171 -131 -182 -179 -222 -249 -363 -414 -382 -337 -345 -348 -312 -209 -62 -89 -104 -104 -126 -131 -81 -90 -55 -77 -36 -52 -38
0 0 0 0 0 0 0 0 0 0 0 0 0 0 0 -187 -187 -199 -140 -94 -133 -200 -213 -247 -246 -228 -298 -270 -202 -204 -183 -167 -211 -62 -94 -71 -48 -68 -183 -164 -77 -29 -45 -22
0 0 0 0 0 0 0 0 0 0 0 0 0 0 0 0 -124 -146 -182 -108 -129 -169 -232 -231 -207 -247 -275 -240 -189 -194 -181 -153 -287 -125 -20 -21 -89 -47 -77 -104 -101 -78 -44 -28
0 0 0 0 0 0 0 0 0 0 0 0 0 0 0 -117 -222 -208 -197 -135 -152 -198 -234 -242 -244 -275 -341 -320 -321 -245 -231 -86 -262 -150 -97 -202 -283 -82 -30 -99 -119 -103 -47 -46
0 0 0 0 0 0 0 0 0 0 0 0 0 0 -262 0 -347 -237 -239 -198 -236 -268 0 0 0 0 0 0 -331 -273 -268 -146 -74 -70 -82 -59 -63 -79 -76 -139 -186 -147 -64 -56
0 0 0 0 0 0 0 0 0 0 0 0 0 0 0 0 0 0 0 0 0 0 0 0 0 0 0 0 0 0 -313 -326 -109 -77 -79 -85 -51 -26 -28 -47 -59 -66 -82 -75
0 0 0 0 0 0 0 0 0 0 0 0 0 0 0 0 0 0 0 0 0 0 -173 -183 -226 -228 0 0 0 0 -37 -242 -161 -104 -79 -67 -45 -27 -7 -16 -47 -50 -44 -34
0 0 0 0 0 0 0 0 0 0 0 0 0 0 0 0 0 0 0 -161 -69 0 0 0 0 0 -321 0 0 0 -271 -330 -276 -239 -224 -111 -39 -36 -30 -22 -30 -33 -53 -60
0 0 0 0 0 0 0 0 0 0 0 0 0 0 0 0 0 -46 0 0 0 0 0 0 0 0 0 0 0 0 0 -143 -269 -274 -295 -211 -88 -15 -21 -22 -21 -28 -34 -76
0 0 0 0 0 0 0 0 0 0 0 0 0 0 0 0 0 0 0 0 0 0 0 0 0 0 0 0 0 0 0 -58 -276 -270 -273 -201 -152 -61 -10 -22 -14 -8 -19 -41
0 0 0 0 0 0 0 0 0 0 0 0 0 0 0 0 0 0 0 0 0 0 0 0 0 0 0 0 0 0 -29 -256 -201 -82 -192 -125 -114 -64 -17 -14 -17 -8 -2 -18
0 0 0 0 0 0 0 0 0 0 0 0 0 0 0 0 0 0 0 0 0 0 0 0 0 0 0 0 0 0 -129 -101 -51 0 -116 -85 -103 -94 -24 -2 -12 -7 0 -20
0 0 0 0 0 0 0 0 0 0 0 0 0 0 0 0 0 0 0 0 0 0 0 0 0 0 0 0 0 0 0 0 0 0 -121 -49 -116 -128 -137 -41 -3 -1 -6 -6
0 0 0 0 0 0 0 0 0 0 0 0 0 0 0 0 0 0 0 0 0 0 0 0 0 0 0 0 0 0 0 0 0 0 0 0 0 0 0 -22 -13 -4 -41 -26
0 0 0 0 0 0 0 0 0 0 0 0 0 0 0 0 0 0 0 0 -7 -29 -33 -21 -17 -16 -5 -19 0 0 0 0 0 0 0 0 0 0 0 0 -101 -40 -219 -68
Wind_Speed
3 2 2 4 1 3 5 4 6 4 4 3 7 13 17 7 13 14 14 16 17 20 15 12 12 9 3 11 12 15 15 12 11 8 6 6 7 7 6 7 13 11 9 9
2 2 2 3 1 2 2 3 5 9 2 2 8 13 11 3 9 12 13 16 19 15 15 14 14 17 15 15 15 16 16 14 12 9 6 5 6 6 5 9 10 12 9 9
2 1 4 1 2 5 3 3 4 5 6 2 9 5 7 4 3 4 9 13 17 17 16 15 19 22 20 14 13 13 15 14 13 12 6 4 3 2 4 6 6 7 9 11
5 1 3 4 5 1 3 4 7 7 5 5 5 4 3 8 5 10 10 8 12 15 15 15 20 22 21 17 15 16 15 14 12 13 11 11 8 8 7 6 6 5 8 9
3 2 1 5 4 4 2 2 1 2 3 3 4 4 4 7 8 16 13 10 7 12 14 15 19 22 21 20 18 8 8 9 10 11 12 9 10 7 4 4 6 6 7 9
7 1 4 4 1 4 2 3 2 2 1 1 4 5 3 7 8 14 14 13 12 7 5 9 14 14 15 14 11 9 9 9 10 11 12 11 12 10 6 6 5 6 6 7
2 5 3 3 3 3 4 2 1 2 1 3 2 4 3 8 8 10 14 13 10 4 8 12 15 16 17 18 16 13 12 12 14 13 13 13 13 11 11 9 7 7 7 8
3 6 2 4 5 3 2 2 1 3 4 4 1 3 3 6 9 8 6 4 3 5 8 11 12 11 10 11 14 15 16 12 12 13 13 12 13 10 9 10 8 8 8 8
4 2 2 7 1 3 5 2 3 5 1 4 1 3 7 4 5 6 6 4 1 5 7 9 7 10 7 10 12 10 10 8 8 10 11 12 12 13 11 12 10 9 9 7
2 2 1 1 2 12 2 8 3 0 3 7 3 4 6 4 2 3 4 3 4 6 5 7 9 10 10 5 8 8 8 10 10 6 9 10 12 12 9 9 10 10 8 7
5 4 3 2 4 0 4 4 5 2 3 5 6 2 4 5 3 6 6 6 8 6 8 7 10 11 10 7 7 7 9 12 14 14 10 10 9 4 6 11 11 11 9 9
6 3 3 1 4 1 2 2 3 3 2 1 3 3 6 1 4 8 7 5 8 7 6 7 8 8 7 6 4 4 3 9 13 12 12 13 10 12 8 2 12 12 11 11
9 3 4 4 3 3 4 3 2 4 1 5 4 3 3 2 6 7 8 5 6 8 7 3 5 7 7 6 4 5 5 7 10 8 9 11 10 9 12 13 15 13 11 11
2 3 3 6 2 2 4 6 5 5 4 3 8 10 7 4 9 9 7 4 6 7 8 5 6 8 8 8 7 8 8 8 6 8 7 9 7 7 9 12 12 11 13 12
3 2 2 1 1 3 3 6 8 8 5 8 11 6 8 8 10 9 4 3 5 8 10 9 8 8 8 9 9 10 11 9 2 5 8 8 9 7 9 8 8 10 12 11
4 1 0 2 2 4 6 7 8 8 5 8 9 10 3 4 1 3 5 5 7 7 8 9 9 9 8 8 8 8 9 9 7 5 5 7 9 7 5 4 6 7 13 12
2 5 4 7 3 2 9 10 9 4 2 4 7 3 4 2 4 3 4 5 5 6 7 8 7 6 5 4 2 5 8 9 7 6 7 10 10 10 8 7 7 10 11 12
3 3 0 4 2 9 5 5 6 3 1 3 2 2 1 1 0 1 2 3 3 6 9 9 10 11 10 8 7 5 6 7 6 6 6 6 7 8 8 6 6 8 10 12
3 4 3 4 6 4 3 2 0 2 3 2 3 2 1 5 5 10 8 6 5 7 11 13 13 12 12 13 10 6 6 6 7 6 7 8 8 7 6 7 7 7 7 9
6 4 4 3 4 5 4 3 5 3 6 3 1 0 3 5 6 4 8 5 10 16 14 14 15 16 16 14 13 12 11 9 10 6 7 8 9 8 8 7 7 8 7 10
2 2 5 4 5 1 2 4 1 5 4 3 1 4 6 7 8 12 15 16 14 16 17 17 17 17 18 17 15 14 13 13 10 10 8 8 9 10 8 7 7 7 8 9
1 2 2 2 3 5 3 2 3 6 1 3 6 8 11 13 15 16 17 17 17 17 17 17 17 18 17 16 15 16 15 13 12 9 9 8 10 8 7 7 7 7 8 9
3 2 2 4 3 2 1 3 4 4 7 9 9 13 14 16 18 19 19 20 18 19 17 17 16 17 16 17 16 17 15 13 13 11 10 10 8 9 9 8 8 7 7 7
3 2 2 4 2 4 5 4 6 6 10 13 15 17 17 20 21 21 19 19 18 18 18 17 17 18 18 16 17 16 15 13 13 12 11 10 9 9 9 8 8 7 7 8
3 3 1 4 5 6 8 9 8 10 13 15 17 19 20 21 22 22 19 19 18 18 18 16 16 17 18 17 17 17 14 12 12 11 11 12 11 11 10 10 9 8 9 9
3 1 4 5 7 6 10 10 9 14 18 19 20 21 20 20 21 22 20 19 18 17 17 16 17 18 18 18 17 16 14 13 12 12 10 10 11 11 10 10 10 11 13 11
Wind_Direction
45 263 58 332 63 304 291 288 304 263 278 279 276 259 272 233 223 230 211 210 213 214 215 203 189 132 96 230 213 202 202 195 188 193 189 207 221 214 169 200 233 228 221 210
223 226 160 279 6 265 239 285 284 289 293 231 283 281 300 260 260 249 221 218 222 218 215 187 179 160 192 207 209 208 208 202 194 202 199 212 194 220 204 194 229 227 206 207
226 339 256 208 330 301 193 237 258 282 315 218 309 297 7 339 312 313 233 224 227 226 214 184 182 184 192 211 244 221 214 202 196 199 185 181 163 159 199 220 219 207 209 216
248 262 236 303 307 211 302 216 264 285 279 322 343 324 9 345 338 41 21 239 240 233 220 193 185 197 195 190 212 205 211 198 200 193 198 203 217 221 220 215 218 188 205 211
148 194 279 297 273 201 287 334 343 314 283 273 39 281 74 348 344 356 348 351 291 247 225 192 196 197 196 195 211 191 223 211 209 205 219 208 220 231 244 217 228 215 204 212
269 202 259 242 1 214 112 203 82 109 312 197 5 324 51 6 324 321 329 334 335 298 225 182 190 189 197 194 200 176 194 208 203 207 214 229 235 216 216 226 235 229 219 213
294 243 230 212 223 175 199 243 329 177 32 16 336 253 353 324 330 313 314 328 353 72 154 158 171 182 186 185 176 164 184 199 200 196 203 213 231 236 222 216 227 238 233 224
264 153 229 161 241 157 106 331 48 352 335 348 177 279 46 316 323 330 330 345 60 139 161 167 176 187 143 184 183 190 169 183 198 195 209 208 219 225 228 221 220 229 232 234
202 139 58 62 111 284 143 136 24 119 117 256 5 252 256 274 326 4 10 5 222 186 175 179 143 108 74 167 200 227 197 165 185 210 190 198 213 221 225 223 223 223 220 225
185 230 61 43 202 59 344 130 185 99 270 291 236 260 277 215 243 31 34 339 265 230 102 82 77 71 73 91 186 208 202 211 229 218 228 212 220 216 236 240 228 228 227 226
170 238 150 239 21 78 156 151 73 107 324 298 292 289 344 273 311 334 348 330 302 324 45 54 59 56 51 55 80 182 214 234 248 255 251 239 219 162 264 244 239 237 217 212
176 176 213 75 18 354 324 92 225 267 199 118 301 259 344 318 331 322 319 334 330 332 26 52 44 44 47 44 67 106 194 242 245 255 256 252 249 177 182 283 267 241 215 208
178 187 147 147 161 211 235 132 104 103 142 199 260 267 357 284 298 315 296 324 354 349 353 34 84 59 50 42 27 350 318 262 246 223 242 252 249 224 177 192 237 239 215 205
129 132 235 272 10 95 180 176 186 247 235 253 248 280 248 289 302 300 284 312 22 25 30 35 57 44 30 25 7 3 354 358 246 219 221 232 240 231 227 197 203 225 221 201
331 153 218 190 182 206 243 211 195 222 261 252 314 257 287 327 318 309 316 18 49 40 43 36 40 37 19 17 0 356 352 6 351 254 255 247 238 221 210 181 195 211 225 215
1 129 193 263 211 241 254 251 242 242 234 253 267 271 269 343 83 101 64 56 49 28 22 23 21 20 23 17 356 341 341 345 359 349 316 314 315 318 314 187 209 205 228 218
327 158 182 250 1 292 258 256 249 234 219 279 254 5 160 132 103 60 54 41 39 2 354 342 339 337 328 320 307 322 319 321 332 337 333 337 347 342 328 292 246 233 221 215
156 120 237 275 201 249 54 352 241 239 141 195 157 118 175 214 98 321 320 325 321 316 307 315 318 318 313 315 311 309 293 299 311 309 313 320 332 339 330 307 267 241 238 229
258 159 156 241 227 338 204 157 156 251 165 172 155 141 63 355 287 265 244 254 293 332 313 302 302 301 308 308 309 289 277 278 286 291 309 309 310 315 328 317 303 285 242 234
93 80 224 161 240 251 73 109 4 167 253 164 217 132 329 334 274 308 11 261 279 303 299 293 295 294 294 291 296 296 293 293 292 279 286 296 295 287 295 305 300 293 268 251
102 70 224 205 250 264 51 354 217 234 41 150 297 316 301 283 282 293 290 282 276 280 284 285 282 279 281 286 285 277 280 275 271 287 280 278 282 280 272 287 289 284 277 262
275 236 181 167 247 251 33 135 304 358 272 258 293 300 300 295 293 293 292 290 290 285 281 278 278 278 277 279 277 277 274 274 273 266 272 276 290 292 276 272 278 275 265 266
216 313 352 254 7 24 329 48 348 281 280 280 276 305 305 294 291 291 291 288 285 284 283 281 279 281 279 275 268 273 275 271 264 265 266 270 275 286 281 264 264 268 259 255
152 158 271 275 134 249 250 246 269 271 272 284 286 290 294 289 289 287 288 285 287 286 281 282 283 279 277 273 270 269 271 271 259 254 255 261 269 279 282 272 255 254 257 256
27 182 216 266 265 283 260 241 259 293 295 290 286 288 290 292 290 289 285 282 281 279 278 277 275 274 273 275 273 269 270 267 261 256 258 261 261 264 273 268 262 239 246 256
189 94 288 306 311 279 276 281 300 294 295 295 294 293 290 290 286 285 282 281 281 281 282 277 270 267 270 272 272 269 266 263 261 259 255 255 258 254 258 262 265 224 240 263